Time,TemperatureF,DewpointF,PressureIn,WindDirection,WindDirectionDegrees,WindSpeedMPH,WindSpeedGustMPH,Humidity,HourlyPrecipIn,Conditions,Clouds,dailyrainin,SoftwareType,DateUTC
2013-06-12 00:00:00,62.2,44.3,28.26,ENE,70,0.0,0.9,96,0.00,,,-99.99,HOBO +U30 +Weather +,2013-06-12 07:00:00,
2013-06-12 00:15:00,62.0,44.0,28.26,ENE,70,0.0,0.0,96,0.00,,,-99.99,HOBO +U30 +Weather +,2013-06-12 07:15:00,
2013-06-12 00:39:00,61.9,43.8,28.26,ENE,70,0.0,0.0,96,0.00,,,-99.99,HOBO +U30 +Weather +,2013-06-12 07:39:00,
2013-06-12 00:45:00,61.8,43.9,28.26,ENE,70,0.0,0.0,96,0.00,,,-99.99,HOBO +U30 +Weather +,2013-06-12 07:45:00,
2013-06-12 01:00:00,61.7,44.1,28.26,ENE,70,0.0,0.0,96,0.00,,,-99.99,HOBO +U30 +Weather +,2013-06-12 08:00:00,
2013-06-12 01:15:00,61.6,44.1,28.26,ENE,70,0.0,0.0,96,0.00,,,-99.99,HOBO +U30 +Weather +,2013-06-12 08:15:00,
2013-06-12 01:39:00,61.5,44.4,28.26,ENE,70,0.0,0.0,96,0.00,,,-99.99,HOBO +U30 +Weather +,2013-06-12 08:39:00,
2013-06-12 01:45:00,61.3,44.3,28.26,ENE,70,0.0,0.0,96,0.00,,,-99.99,HOBO +U30 +Weather +,2013-06-12 08:45:00,
2013-06-12 02:00:00,61.2,44.5,28.26,ESE,122,0.0,2.0,96,0.00,,,-99.99,HOBO +U30 +Weather +,2013-06-12 09:00:00,
2013-06-12 02:15:00,61.1,44.3,28.25,SE,128,0.0,26.2,96,0.00,,,-99.99,HOBO +U30 +Weather +,2013-06-12 09:15:00,
2013-06-12 02:38:00,61.0,44.4,28.26,SE,128,0.0,26.2,96,0.00,,,-99.99,HOBO +U30 +Weather +,2013-06-12 09:38:00,
2013-06-12 02:45:00,60.9,44.3,28.25,SE,128,0.0,26.6,96,0.00,,,-99.99,HOBO +U30 +Weather +,2013-06-12 09:45:00,
2013-06-12 03:00:00,60.8,44.3,28.25,SE,128,0.0,27.1,96,0.00,,,-99.99,HOBO +U30 +Weather +,2013-06-12 10:00:00,
2013-06-12 03:15:00,60.7,44.3,28.25,SE,128,0.0,26.2,96,0.00,,,-99.99,HOBO +U30 +Weather +,2013-06-12 10:15:00,
2013-06-12 03:38:00,60.6,44.6,28.25,SE,128,0.0,27.7,96,0.00,,,-99.99,HOBO +U30 +Weather +,2013-06-12 10:38:00,
2013-06-12 03:45:00,60.6,44.0,28.25,SE,128,0.0,26.6,96,0.00,,,-99.99,HOBO +U30 +Weather +,2013-06-12 10:45:00,
2013-06-12 04:00:00,60.5,44.0,28.25,SE,128,0.0,26.2,96,0.00,,,-99.99,HOBO +U30 +Weather +,2013-06-12 11:00:00,
2013-06-12 04:15:00,60.4,44.1,28.25,SE,128,0.0,27.7,96,0.00,,,-99.99,HOBO +U30 +Weather +,2013-06-12 11:15:00,
2013-06-12 04:37:00,60.3,44.2,28.25,SE,128,0.0,25.3,96,0.00,,,-99.99,HOBO +U30 +Weather +,2013-06-12 11:37:00,
2013-06-12 04:45:00,60.2,43.8,28.25,SE,128,0.0,24.8,96,0.00,,,-99.99,HOBO +U30 +Weather +,2013-06-12 11:45:00,
2013-06-12 05:00:00,60.1,43.8,28.26,SE,128,0.0,26.2,96,0.00,,,-99.99,HOBO +U30 +Weather +,2013-06-12 12:00:00,
2013-06-12 05:15:00,60.0,44.0,28.26,SE,128,0.0,25.3,96,0.00,,,-99.99,HOBO +U30 +Weather +,2013-06-12 12:15:00,
2013-06-12 05:37:00,60.0,44.2,28.26,SE,128,0.0,19.9,96,0.00,,,-99.99,HOBO +U30 +Weather +,2013-06-12 12:37:00,
2013-06-12 05:45:00,59.9,44.2,28.26,SE,128,0.0,20.8,96,0.00,,,-99.99,HOBO +U30 +Weather +,2013-06-12 12:45:00,
2013-06-12 06:00:00,59.8,44.8,28.26,SE,135,0.4,19.0,97,0.00,,,-99.99,HOBO +U30 +Weather +,2013-06-12 13:00:00,
2013-06-12 06:15:00,59.7,44.6,28.26,SE,143,0.0,26.2,96,0.00,,,-99.99,HOBO +U30 +Weather +,2013-06-12 13:15:00,
2013-06-12 06:37:00,59.7,45.0,28.26,SE,143,0.0,2.0,96,0.00,,,-99.99,HOBO +U30 +Weather +,2013-06-12 13:37:00,
2013-06-12 06:45:00,59.6,45.5,28.26,WSW,241,1.3,27.3,95,0.00,,,-99.99,HOBO +U30 +Weather +,2013-06-12 13:45:00,
2013-06-12 07:00:00,59.5,45.9,28.26,WSW,246,0.9,27.1,94,0.00,,,-99.99,HOBO +U30 +Weather +,2013-06-12 14:00:00,
2013-06-12 07:15:00,59.5,45.6,28.26,WSW,247,0.0,2.5,92,0.00,,,-99.99,HOBO +U30 +Weather +,2013-06-12 14:15:00,
2013-06-12 07:38:00,59.4,45.7,28.26,WSW,237,1.6,3.4,92,0.00,,,-99.99,HOBO +U30 +Weather +,2013-06-12 14:38:00,
2013-06-12 07:45:00,59.3,45.7,28.26,WSW,246,2.0,27.1,91,0.00,,,-99.99,HOBO +U30 +Weather +,2013-06-12 14:45:00,
2013-06-12 08:00:00,59.3,46.3,28.26,WNW,286,2.0,4.9,90,0.00,,,-99.99,HOBO +U30 +Weather +,2013-06-12 15:00:00,
2013-06-12 08:15:00,59.2,47.0,28.26,SW,223,1.3,2.9,90,0.00,,,-99.99,HOBO +U30 +Weather +,2013-06-12 15:15:00,
2013-06-12 08:37:00,59.2,46.3,28.26,WSW,239,1.6,25.3,88,0.00,,,-99.99,HOBO +U30 +Weather +,2013-06-12 15:37:00,
2013-06-12 08:45:00,59.2,46.3,28.27,SW,227,1.3,24.8,86,0.00,,,-99.99,HOBO +U30 +Weather +,2013-06-12 15:45:00,
2013-06-12 09:00:00,59.2,46.5,28.27,SW,216,1.6,4.3,84,0.00,,,-99.99,HOBO +U30 +Weather +,2013-06-12 16:00:00,
2013-06-12 09:15:00,59.2,47.4,28.26,SW,234,2.5,26.6,81,0.00,,,-99.99,HOBO +U30 +Weather +,2013-06-12 16:15:00,
2013-06-12 09:37:00,59.2,46.3,28.27,WNW,303,1.3,4.3,72,0.00,,,-99.99,HOBO +U30 +Weather +,2013-06-12 16:37:00,
2013-06-12 09:45:00,59.3,43.8,28.26,WNW,291,2.0,26.6,70,0.00,,,-99.99,HOBO +U30 +Weather +,2013-06-12 16:45:00,
2013-06-12 10:00:00,59.3,43.9,28.26,WSW,241,3.8,27.3,70,0.00,,,-99.99,HOBO +U30 +Weather +,2013-06-12 17:00:00,
2013-06-12 10:15:00,59.4,45.4,28.26,WNW,285,2.5,6.7,70,0.00,,,-99.99,HOBO +U30 +Weather +,2013-06-12 17:15:00,
2013-06-12 10:37:00,59.5,44.7,28.27,West,277,2.9,18.6,69,0.00,,,-99.99,HOBO +U30 +Weather +,2013-06-12 17:37:00,
2013-06-12 10:45:00,59.5,47.7,28.26,WNW,282,2.5,9.2,66,0.00,,,-99.99,HOBO +U30 +Weather +,2013-06-12 17:45:00,
2013-06-12 11:00:00,59.6,46.5,28.26,WSW,253,2.5,7.4,65,0.00,,,-99.99,HOBO +U30 +Weather +,2013-06-12 18:00:00,
2013-06-12 11:15:00,59.7,43.9,28.26,WNW,298,3.4,8.3,63,0.00,,,-99.99,HOBO +U30 +Weather +,2013-06-12 18:15:00,
2013-06-12 11:37:00,59.9,45.2,28.27,WNW,299,3.4,27.1,66,0.00,,,-99.99,HOBO +U30 +Weather +,2013-06-12 18:37:00,
2013-06-12 11:45:00,60.0,45.9,28.27,WNW,288,4.5,14.1,65,0.00,,,-99.99,HOBO +U30 +Weather +,2013-06-12 18:45:00,
2013-06-12 12:00:00,60.2,44.7,28.27,SW,229,4.9,25.7,65,0.00,,,-99.99,HOBO +U30 +Weather +,2013-06-12 19:00:00,
2013-06-12 12:15:00,60.4,45.5,28.26,SSW,213,4.3,18.3,63,0.00,,,-99.99,HOBO +U30 +Weather +,2013-06-12 19:15:00,
2013-06-12 12:37:00,60.6,43.4,28.26,West,281,3.4,10.7,57,0.00,,,-99.99,HOBO +U30 +Weather +,2013-06-12 19:37:00,
2013-06-12 12:45:00,60.9,45.4,28.26,WSW,243,5.4,25.7,55,0.00,,,-99.99,HOBO +U30 +Weather +,2013-06-12 19:45:00,
2013-06-12 13:00:00,61.1,45.0,28.26,NW,323,3.4,21.9,54,0.00,,,-99.99,HOBO +U30 +Weather +,2013-06-12 20:00:00,
2013-06-12 13:15:00,61.3,43.3,28.26,West,272,4.9,26.2,52,0.00,,,-99.99,HOBO +U30 +Weather +,2013-06-12 20:15:00,
2013-06-12 13:38:00,61.6,46.7,28.26,WNW,289,5.4,15.9,56,0.00,,,-99.99,HOBO +U30 +Weather +,2013-06-12 20:38:00,
2013-06-12 13:45:00,62.0,44.2,28.26,WNW,288,4.5,11.6,56,0.00,,,-99.99,HOBO +U30 +Weather +,2013-06-12 20:45:00,
2013-06-12 14:00:00,62.3,44.0,28.27,WNW,302,4.5,9.6,57,0.00,,,-99.99,HOBO +U30 +Weather +,2013-06-12 21:00:00,
2013-06-12 14:15:00,62.7,45.5,28.26,West,274,2.5,7.2,56,0.00,,,-99.99,HOBO +U30 +Weather +,2013-06-12 21:15:00,
2013-06-12 14:38:00,63.0,45.6,28.25,NW,316,2.5,7.4,53,0.00,,,-99.99,HOBO +U30 +Weather +,2013-06-12 21:38:00,
2013-06-12 14:45:00,63.3,44.1,28.25,WNW,286,4.3,18.3,53,0.00,,,-99.99,HOBO +U30 +Weather +,2013-06-12 21:45:00,
2013-06-12 15:00:00,63.6,46.6,28.25,WNW,286,3.4,13.0,51,0.00,,,-99.99,HOBO +U30 +Weather +,2013-06-12 22:00:00,
2013-06-12 15:15:00,63.9,45.2,28.25,NW,320,2.9,8.3,54,0.00,,,-99.99,HOBO +U30 +Weather +,2013-06-12 22:15:00,
2013-06-12 15:38:00,64.2,44.8,28.25,West,268,4.5,14.1,54,0.00,,,-99.99,HOBO +U30 +Weather +,2013-06-12 22:38:00,
2013-06-12 15:45:00,64.4,45.3,28.26,NW,314,4.3,11.6,65,0.00,,,-99.99,HOBO +U30 +Weather +,2013-06-12 22:45:00,
2013-06-12 16:00:00,64.7,46.7,28.28,WNW,299,5.4,14.5,85,0.08,,,-99.99,HOBO +U30 +Weather +,2013-06-12 23:00:00,
2013-06-12 16:15:00,64.9,49.0,28.28,NW,314,2.5,10.3,91,0.20,,,-99.99,HOBO +U30 +Weather +,2013-06-12 23:15:00,
2013-06-12 16:38:00,65.1,51.9,28.27,WNW,288,2.0,4.9,88,0.05,,,-99.99,HOBO +U30 +Weather +,2013-06-12 23:38:00,
2013-06-12 16:45:00,65.3,50.7,28.27,WNW,293,2.5,13.6,87,0.00,,,-99.99,HOBO +U30 +Weather +,2013-06-12 23:45:00,
2013-06-12 17:00:00,65.4,49.0,28.28,NW,310,2.0,17.4,88,0.00,,,-99.99,HOBO +U30 +Weather +,2013-06-13 00:00:00,
2013-06-12 17:15:00,65.6,49.7,28.28,NW,326,1.6,14.1,90,0.05,,,-99.99,HOBO +U30 +Weather +,2013-06-13 00:15:00,
2013-06-12 17:38:00,65.7,49.7,28.28,NW,326,1.6,16.1,91,0.00,,,-99.99,HOBO +U30 +Weather +,2013-06-13 00:38:00,
2013-06-12 17:45:00,65.8,48.5,28.28,NW,309,1.6,15.0,91,0.05,,,-99.99,HOBO +U30 +Weather +,2013-06-13 00:45:00,
2013-06-12 18:00:00,65.8,49.0,28.28,WNW,300,2.0,5.8,93,0.05,,,-99.99,HOBO +U30 +Weather +,2013-06-13 01:00:00,
2013-06-12 18:15:00,65.8,48.3,28.28,West,272,1.6,14.1,91,0.00,,,-99.99,HOBO +U30 +Weather +,2013-06-13 01:15:00,
2013-06-12 18:38:00,65.8,48.7,28.28,WSW,253,2.0,4.9,93,0.05,,,-99.99,HOBO +U30 +Weather +,2013-06-13 01:38:00,
2013-06-12 18:45:00,65.8,48.7,28.28,WNW,292,1.3,13.2,93,0.05,,,-99.99,HOBO +U30 +Weather +,2013-06-13 01:45:00,
2013-06-12 19:00:00,65.8,48.3,28.28,SSW,213,1.6,3.4,93,0.05,,,-99.99,HOBO +U30 +Weather +,2013-06-13 02:00:00,
2013-06-12 19:15:00,65.8,47.9,28.28,SSW,209,1.6,3.8,93,0.00,,,-99.99,HOBO +U30 +Weather +,2013-06-13 02:15:00,
2013-06-12 19:38:00,65.7,48.0,28.28,SSW,205,0.4,15.9,92,0.00,,,-99.99,HOBO +U30 +Weather +,2013-06-13 02:38:00,
2013-06-12 19:45:00,65.6,48.4,28.28,SSW,205,0.4,17.0,93,0.00,,,-99.99,HOBO +U30 +Weather +,2013-06-13 02:45:00,
2013-06-12 20:00:00,65.5,48.5,28.28,SSW,205,0.4,2.9,94,0.00,,,-99.99,HOBO +U30 +Weather +,2013-06-13 03:00:00,
2013-06-12 20:15:00,65.4,47.6,28.28,SSW,205,0.9,19.0,94,0.00,,,-99.99,HOBO +U30 +Weather +,2013-06-13 03:15:00,
2013-06-12 20:37:00,65.3,47.7,28.28,SSW,209,0.4,19.5,95,0.00,,,-99.99,HOBO +U30 +Weather +,2013-06-13 03:37:00,
2013-06-12 20:45:00,65.2,47.3,28.27,SW,232,0.4,21.9,94,0.08,,,-99.99,HOBO +U30 +Weather +,2013-06-13 03:45:00,
2013-06-12 21:00:00,65.1,47.8,28.28,SW,230,0.9,21.9,94,0.00,,,-99.99,HOBO +U30 +Weather +,2013-06-13 04:00:00,
2013-06-12 21:15:00,64.9,47.3,28.28,SW,233,0.0,23.3,94,0.00,,,-99.99,HOBO +U30 +Weather +,2013-06-13 04:15:00,
2013-06-12 21:36:00,64.8,46.9,28.28,SW,233,0.0,23.3,95,0.00,,,-99.99,HOBO +U30 +Weather +,2013-06-13 04:36:00,
2013-06-12 21:45:00,64.6,46.7,28.28,SW,233,0.0,19.9,95,0.00,,,-99.99,HOBO +U30 +Weather +,2013-06-13 04:45:00,
2013-06-12 22:00:00,64.5,47.0,28.28,SW,233,0.4,24.4,95,0.00,,,-99.99,HOBO +U30 +Weather +,2013-06-13 05:00:00,
2013-06-12 22:15:00,64.4,47.1,28.29,SW,233,0.0,1.6,95,0.00,,,-99.99,HOBO +U30 +Weather +,2013-06-13 05:15:00,
2013-06-12 22:36:00,64.2,46.8,28.29,WNW,285,0.4,2.9,95,0.05,,,-99.99,HOBO +U30 +Weather +,2013-06-13 05:36:00,
2013-06-12 22:45:00,64.1,46.0,28.29,WNW,302,0.0,24.4,95,0.08,,,-99.99,HOBO +U30 +Weather +,2013-06-13 05:45:00,
2013-06-12 23:00:00,64.0,46.0,28.29,WNW,302,0.0,1.6,95,0.00,,,-99.99,HOBO +U30 +Weather +,2013-06-13 06:00:00,
2013-06-12 23:15:00,63.8,46.0,28.29,WNW,302,0.0,0.9,95,0.05,,,-99.99,HOBO +U30 +Weather +,2013-06-13 06:15:00,
2013-06-12 23:35:00,63.6,45.7,28.28,WNW,302,0.0,24.4,95,0.00,,,-99.99,HOBO +U30 +Weather +,2013-06-13 06:35:00,
2013-06-12 23:45:00,63.5,45.7,28.28,WNW,302,0.0,25.3,96,0.00,,,-99.99,HOBO +U30 +Weather +,2013-06-13 06:45:00,